FALCON 9 DEB (55968 NORAD) Tracking and Keplerian Element Data

This shows tracking and keplerian element data for the satellite.

Feedback or suggestion? Click here.




ElementValue
Catalog55968
NameFALCON 9 DEB
Epoch Orbit142
Epoch Day84.62862002
Epoch Year2023
RAAN158.9888
Inclination69.9864
Eccentricity0.0037977
Argument of Perigee146.1689
Mean Anonmoly214.1967
Mean Motion16.20973265
Decay Rate0.02536368
L11 55968U 23037BG 23084.62862002 .02536368 41303-5 10468-2 0 9991
L22 55968 69.9864 158.9888 0037977 146.1689 214.1967 16.20973265 1420



Live tracking and technical data element details for FALCON 9 DEB (NORAD 55968). FALCON 9 DEB can be tracked NOW for your location showing map with azimuth and elevation plus other details from your city location.







IsCatalogInMostPopularTable: catalog: 55968, numindb: 6
Update: records affected: 1



GetName: 55968 FALCON 9 DEB

Hit Count: updated at: Tue, 06 Jun 2023 02:47:25 GMT